Other Public Products
Issued by NWS Grand Forks, ND

Home | Current Version | Previous Version | Graphics & Text | Print | Product List | Glossary On
Versions: 1 2 3 4 5 6 7 8 9 10 11 12 13 14 15 16 17 18 19 20 21 22 23 24 25 26 27 28 29 30 31 32 33 34 35 36 37 38 39 40 41 42 43 44 45 46 47 48 49 50
149
FPUS83 KFGF 232010
OPUFGF
PRAIRIE TO PINES WEATHER ROUNDUP
NATIONAL WEATHER SERVICE EASTERN NORTH DAKOTA/GRAND FORKS ND
200 PM CST THU NOV 23 2017

 **SATELLITE DATA USED TO AUGMENT SKY COVER AT AUTOMATED STATIONS**
 *****  WEATHER ACROSS EASTERN NORTH DAKOTA  *****

CITY           SKY/WX    TMP DP  RH WIND       PRES   REMARKS
GRAND FORKS    CLOUDY    32  30  92 S15       29.63F WCI  22
GRND FORKS AFB FAIR      34  30  86 S13       29.61F WCI  25
GRND FORKS NWS   N/A     32 N/A N/A S9          N/A  WCI  24
BUXTON         NOT AVBL
DEVILS LAKE    FAIR      41  32  70 S6        29.57F
FARGO          FAIR      42  30  62 S13       29.67F
WAHPETON ARPT  NOT AVBL
$$

 *****  WEATHER ACROSS CENTRAL AND WESTERN NORTH DAKOTA  *****

CITY           SKY/WX    TMP DP  RH WIND       PRES   REMARKS
JAMESTOWN      FAIR      56  40  55 SW9       29.61F
BISMARCK       FAIR      71  42  35 W12       29.62F
MINOT          FAIR      57  41  55 SW15      29.50F
MINOT AFB      FAIR      57  41  55 SW16G23   29.48F
GARRISON         N/A     58  43  57 SW9       29.56F
WILLISTON      FAIR      59  40  49 S6        29.53F
DICKINSON      FAIR      69  37  30 W22G30    29.62F
HETTINGER      FAIR      71  36  27 W17       29.70F
$$

 *****  OTHER OBSERVATIONS NORTHEAST NORTH DAKOTA  *****

CITY           SKY/WX    TMP DP  RH WIND       PRES   REMARKS
WALHALLA       FAIR      32  32 100 SE13G20   29.59F WCI  22
LANGDON        FAIR      36  34  93 S15G22    29.56F
CAVALIER       CLOUDY    32  30  93 S14G21    29.59F WCI  22
GRAFTON        CLOUDY    30  32 100 S14G23    29.64F WCI  20
CANDO          FAIR      39  30  70 S10       29.56F
FORT TOTTEN      N/A     43  33  68 S8        29.95S
ROLLA          FAIR      37  32  81 SW16      29.50F
RUGBY          FAIR      50  39  66 S10       29.52F
 ***** THE ABOVE OBSERVATIONS ARE NON NWS ARE NOT QUALITY
        CONTROLLED AND MAY MIS-REPORT RAIN FOR SNOW...
$$

 *****  OTHER OBSERVATIONS SOUTHEAST NORTH DAKOTA *****

CITY           SKY/WX    TMP DP  RH WIND       PRES   REMARKS
COOPERSTOWN    FAIR      48  37  66 S13       29.62F
VALLEY CITY    FAIR      48  37  66 S14       29.65F
OAKES            N/A     50  36  57 S18       29.67F
GWINNER          N/A     54  36  50 SW18      29.66F
SHEYENNE NWR     N/A     48  31  51 S8        29.95S
BUFFALO        NOT AVBL
WYNDMERE       NOT AVBL
 ***** THE ABOVE OBSERVATIONS ARE NON NWS ARE NOT QUALITY
       CONTROLLED AND MAY MIS-REPORT RAIN FOR SNOW...
$$

  *****  WEATHER ACROSS NORTHERN MINNESOTA  *****

CITY           SKY/WX    TMP DP  RH WIND       PRES   REMARKS
FLAG ISLAND    CLOUDY    25  21  86 S10       29.69F WCI  15
WARROAD        CLOUDY    30  25  80 SE8       29.67F WCI  23
ROSEAU         CLOUDY    30  27  86 SE10      29.66F WCI  21
HALLOCK        CLOUDY    32  30  93 S17       29.63F FOG     WCI  21
THF RVR FALLS  CLOUDY    29  29 100 S12       29.66F WCI  19
HALSTAD        NOT AVBL
FOSSTON        FAIR      32  30  93 SE10      29.67F WCI  24
BAUDETTE       FAIR      31  23  72 S8        29.69F WCI  23
WASKISH        CLOUDY    27  25  93 SE5       29.71F WCI  21
CROOKSTON      FAIR      37  30  75 S13       29.66F
$$
  *****  WEATHER ACROSS CENTRAL AND WEST MINNESOTA  *****

CITY           SKY/WX    TMP DP  RH WIND       PRES   REMARKS
BEMIDJI        PTSUNNY   28  26  96 S8        29.70F WCI  19
PARK RAPIDS    FAIR      39  28  64 S10       29.71F
WADENA         FAIR      45  28  53 S8        29.73F
DETROIT LAKES  FAIR      39  30  70 SE13      29.69F
MOORHEAD       FAIR      41  27  56 S14       29.69F
FERGUS FALLS   PTSUNNY   43  27  52 S13       29.74F
ELBOW LAKE     CLOUDY    43  28  56 SE13      29.73F
MORRIS MN      FAIR      45  27  49 SE16      29.74F
STAPLES        FAIR      43  25  49 S9        29.75F
WHEATON        FAIR      46  28  49 SE16        N/A
$$
  *****  WEATHER ELSEWHERE ACROSS MINNESOTA  *****

CITY           SKY/WX    TMP DP  RH WIND       PRES   REMARKS
DULUTH         FAIR      34  25  69 SW10      29.76F
INTRNTL FALLS  CLOUDY    29  20  69 E3        29.71F
ELY            PTSUNNY   32  21  64 CALM      29.73F
CLOQUET        FAIR      36  23  60 SW10      29.78F
BRAINERD       FAIR      40  26  57 S10       29.77F
HIBBING        FAIR      34  22  61 VRB5      29.74F
ALEXANDRIA     FAIR      44  28  53 S14       29.75F
SAINT CLOUD    FAIR      42  24  49 S9        29.81F
MINNEAPOLIS    FAIR      43  23  45 SW5       29.85F
$$

  *****  WEATHER ACROSS SOUTH DAKOTA  *****

CITY           SKY/WX    TMP DP  RH WIND       PRES   REMARKS
SIOUX FALLS    PTSUNNY   57  37  47 SW8       29.82F
BROOKINGS      FAIR      54  35  48 S14       29.78F
WATERTOWN      FAIR      55  37  50 S12       29.75F
HURON          FAIR      58  39  49 S13       29.76F
SISSETON         N/A     60  39  45 SW17      29.67F
ABERDEEN       FAIR      57  39  51 S15       29.71F
MITCHELL       FAIR      63  41  44 S8        29.79F
PIERRE         FAIR      66  42  41 SW7       29.74F
MOBRIDGE       FAIR      64  42  44 SE12      29.67F
RAPID CITY     FAIR      75  37  25 S12       29.80F
$$

  *****  SOME WEATHER IN NEARBY STATES *****

CITY           SKY/WX    TMP DP  RH WIND       PRES   REMARKS
GLASGOW MT     FAIR      71  37  28 W25G39    29.53F
GREAT FALLS MT FAIR      67  35  30 SW25G45   29.62F
CHEYENNE WY    FAIR      61  31  32 W17G24    30.08F
SCOTTSBLUFF NE FAIR      72  36  26 W23G31    29.93F
OMAHA NE       FAIR      59  36  42 S7        29.92F
DES MOINES IA  PTSUNNY   53  30  41 W7        29.94F
DAVENPORT IA   FAIR      47  25  42 SW7       29.94F
CHICAGO IL     FAIR      46  23  40 W10       29.91S
EAU CLAIRE WI  FAIR      41  19  41 SW7       29.86F
LA CROSSE WI   FAIR      43  22  43 CALM      29.90F
$$

  *****  SOME NATIONAL WEATHER *****

CITY           SKY/WX    TMP DP  RH WIND       PRES   REMARKS
LA GUARDIA NY  FAIR      44  18  35 NW6       30.01F
RALEIGH NC     PTSUNNY   48  25  40 CALM      30.07F
ATLANTA GA     FAIR      61  39  44 NE8       29.99F
NEW ORLEANS LA FAIR      61  31  32 N10       30.02F
OKLAHOMA CITY  PTSUNNY   68  30  24 VRB3      30.04F
ALBUQUERQUE NM PTSUNNY   62  31  31 CALM      30.26F
SALT LAKE CITY PTSUNNY   63  43  48 NW3       30.19F
LOS ANGELES CA PTSUNNY   85  46  25 W13       29.97F
BOISE ID       FAIR      61  45  55 SE7       30.02F
SEATTLE WA     CLOUDY    53  50  89 SW12      29.82S
$$

*** WEATHER ACROSS MANITOBA...SASKATCHEWAN AND ONTARIO ***
                ***ONTARIO***

CITY           SKY/WX    TMP DP  RH WIND       PRES   REMARKS
GERALDTON      PTSUNNY   18  10  73 NW8       29.75S WCI   7
THUNDER BAY    CLOUDY    30  21  69 NW6       29.79S WCI  24
SIOUX LOOKOUT  FLURRIES  18  12  79 CALM      29.73F
TORONTO        CLOUDY    37  18  44 SW14      29.92F
BIG TROUT LK   SUNNY      7  -2  66 W9        29.74S WCI  -7
PICKLE LAKE    FLURRIES   9   1  72 NW6       29.74S WCI  -1
DRYDEN         CLOUDY    23  18  80 SE5       29.69F WCI  17
KENORA         FLURRIES  23  19  86 S9        29.68F WCI  13
$$
                *** MANITOBA***

CITY           SKY/WX    TMP DP  RH WIND       PRES   REMARKS
BRANDON        PTSUNNY   30  25  80 SE10      29.48F WCI  21
DAUPHIN        SUNNY     25  19  80 SE9       29.43F WCI  15
ISLAND LAKE    FLURRIES   7   1  78 SE9       29.67F WCI  -7
PILOT MOUND      N/A     34  30  86 S15         N/A  WCI  24
THE PAS        FLURRIES  12   7  79 SE17G25   29.40F WCI  -5
THOMPSON       CRYSTALS   1  -8  66 VRB2      29.60F
WINNIPEG       CLOUDY    27  21  80 SE10      29.62F WCI  17
LYNN LAKE      HVY SNOW   0  -4  85 E8        29.45F VSB 1/4 WCI -15
CHURCHILL      PTCLDY    -2 -11  65 W13G20    29.57F WCI -21
$$
                ***SASKATCHEWAN***

CITY           SKY/WX    TMP DP  RH WIND       PRES   REMARKS
ESTEVAN        PTSUNNY   54  41  62 SW15      29.42F
KINDERSLEY     MOSUNNY   41  34  75 NW12G18   29.33S
LLOYDMINSTER   LGT RAIN  34  28  80 W18G24    29.29S WCI  23
PRINCE ALBERT  CLOUDY    23  19  86 VRB2      29.27S
REGINA         PTSUNNY   41  36  81 SW8       29.33F
YORKTON        CLOUDY    27  25  93 S13G18    29.33F FOG     WCI  16
N. BATTLEFORD  CLOUDY    28  23  80 NW13      29.30S WC



USA.gov is the U.S. government's official web portal to all federal, state and local government web resources and services.